Tracking 23762 objects as of 22-Oct-2021
HD Live streaming from Space Station
objects crossing your sky now

GEOSAT

Track GEOSAT now!
10-day predictions
GEOSAT is classified as:


NORAD ID: 15595
Int'l Code: 1985-021A
Perigee: 770.4 km
Apogee: 772.6 km
Inclination: 108.0 °
Period: 100.1 minutes
Semi major axis: 7142 km
RCS: 9.5926 m2 (large)
Launch date: March 13, 1985
Source: United States (US)
Launch site: AIR FORCE WESTERN TEST RANGE (AFWTR)
aabbcc
Your satellite tracking list
Your tracking list is empty




NASA's NSSDC Master Catalog

Two Line Element Set (TLE):
1 15595U 85021A   21295.51062837 -.00000053  00000-0  27256-4 0  9997
2 15595 108.0446 150.2226 0001498 257.9254 102.1719 14.38226285918712
Source of the keplerian elements: AFSPC